Flag for United Arab Emirates Weather past 2 weeks in Umm al-Quwain, Umm al-Quwain, United Arab Emirates

Now
99 °F

Sunny.


Feels Like: 108 °F
Forecast: 88 / 96 °F
Wind: 9 mph from Northwest

Location: Sharjah International Airport

Current Time: Jun 30, 2015 at 1:24:57 PM

Latest Report: Jun 30, 2015 at 1:00 PM


Visibility: 10 mi

Pressure: 29.59 "Hg

Humidity: 42%

Dew point: 72 °F

Location of Umm al-QuwainLocation

Historic Weather in Umm al-Quwain — Graph

°F

Umm al-Quwain temperature yesterday

Maximum temperature yesterday: 100 °F (at 11:00 AM)
Minimum temperature yesterday: 84 °F (at 4:00 AM)
Average temperature yesterday: 93 °F

Past Weeks' High & Low Weather Summary

 TemperatureHumidityPressure
High108 °F (Jun 18, 12:00 PM)84% (Jun 16, 4:00 AM)29.65 "Hg (Jun 16, 4:00 AM)
Low81 °F (Jun 17, 5:00 AM)12% (Jun 27, 2:00 PM)29.33 "Hg (Jun 19, 2:00 PM)
Average94 °F47%29.47 "Hg
* Reported Jun 15 12:00 Noon — Jun 30 12:00 Noon, Umm al-Quwain, Weather by CustomWeather, © 2015

Note: Actual official high and low records may vary slightly from our data, if they occured in-between our weather recording intervals... More about our weather records

Advertising

Umm al-Quwain weather history for previous 24 hours

 ConditionsComfort  
Time TempWeatherWind HumidityBarometerVisibility
12:00 PM
Tue, Jun 30
104 °FSunny.5 mph19%29.62 "Hg10 mi
11:00 AM102 °FSunny.3 mph26%29.62 "Hg10 mi
10:00 AM97 °FSunny.3 mph37%29.62 "Hg10 mi
9:00 AM93 °FSunny.2 mph47%29.62 "Hg10 mi
8:00 AM90 °FSunny.3 mph55%29.65 "Hg10 mi
7:00 AM86 °FSunny.3 mph66%29.62 "Hg10 mi
6:00 AM82 °FSunny.3 mph70%29.59 "Hg10 mi
5:00 AM82 °FClear.2 mph70%29.59 "Hg10 mi
4:00 AM86 °FClear.3 mph66%29.56 "Hg10 mi
3:00 AM88 °FClear.7 mph62%29.59 "Hg10 mi
2:00 AM88 °FClear.6 mph59%29.59 "Hg10 mi
1:00 AM86 °FClear.9 mph66%29.59 "Hg10 mi
12:00 AM88 °FClear.6 mph59%29.62 "Hg10 mi
11:00 PM
Mon, Jun 29
91 °FClear.3 mph56%29.62 "Hg10 mi
10:00 PM93 °FClear.5 mph47%29.62 "Hg10 mi
9:00 PM93 °FClear.7 mph53%29.62 "Hg10 mi
8:00 PM93 °FClear.8 mph47%29.59 "Hg10 mi
7:00 PM95 °FSunny.8 mph47%29.59 "Hg10 mi
6:00 PM97 °FSunny.7 mph39%29.59 "Hg10 mi
5:00 PM97 °FSunny.10 mph37%29.59 "Hg10 mi
4:00 PM99 °FSunny.12 mph35%29.59 "Hg10 mi
3:00 PM99 °FSunny.12 mph35%29.62 "Hg10 mi
2:00 PM99 °FSunny.9 mph31%29.62 "Hg10 mi
1:00 PM100 °FSunny.14 mph24%29.65 "Hg10 mi
Weather by CustomWeather, © 2015

See weather overviewHow to use our weather pages